This is the latest recevied weather packets stored in our database for station/object K5UTC. If no packets are shown the sender has not sent any weather packets the latest 1 day(s).
| Time | Temp. | Humidity | Pressure | Rain* | Wind** | Luminosity | Snow |
|---|---|---|---|---|---|---|---|
| 1778035739 | 23.33° C | 65% | 1009.7 hPa | 0 mm | - | 0 W/m² | - |
| 1778035436 | 23.33° C | 63% | 1009.6 hPa | 0 mm | - | 0 W/m² | - |
| 1778035132 | 23.33° C | 64% | 1009.8 hPa | 0 mm | - | 0 W/m² | - |
| 1778034829 | 23.33° C | 63% | 1009.7 hPa | 0 mm | - | 0 W/m² | - |
| 1778034525 | 22.78° C | 64% | 1009.3 hPa | 0 mm | - | 0 W/m² | - |
| 1778033921 | 22.78° C | 66% | 1009.3 hPa | 0 mm | - | 0 W/m² | - |
| 1778033618 | 22.78° C | 65% | 1009 hPa | 0 mm | - | 0 W/m² | - |
| 1778033314 | 22.78° C | 66% | 1009 hPa | 0 mm | - | 0 W/m² | - |
| 1778033013 | 22.78° C | 65% | 1009.2 hPa | 0 mm | - | 0 W/m² | - |
| 1778032710 | 22.78° C | 64% | 1009.5 hPa | 0 mm | - | 0 W/m² | - |
| 1778032407 | 22.78° C | 64% | 1009.5 hPa | 0 mm | - | 0 W/m² | - |
| 1778032104 | 22.78° C | 65% | 1009.5 hPa | 0 mm | - | 0 W/m² | - |
| 1778031497 | 22.78° C | 64% | 1009.3 hPa | 0 mm | - | 0 W/m² | - |
| 1778031195 | 22.78° C | 62% | 1009.6 hPa | 0 mm | - | 0 W/m² | - |
| 1778030891 | 22.78° C | 64% | 1009.1 hPa | 0 mm | - | 0 W/m² | - |
| 1778030588 | 22.78° C | 64% | 1009.3 hPa | 0 mm | - | 0 W/m² | - |
| 1778029981 | 22.78° C | 65% | 1009.1 hPa | 0 mm | - | 0 W/m² | - |
| 1778029680 | 22.78° C | 65% | 1009.3 hPa | 0 mm | - | 0 W/m² | - |
| 1778029074 | 22.78° C | 65% | 1009.2 hPa | 0 mm | - | 0 W/m² | - |
| 1778028771 | 22.78° C | 64% | 1009.2 hPa | 0 mm | - | 0 W/m² | - |
| 1778028466 | 22.78° C | 65% | 1009.3 hPa | 0 mm | - | 0 W/m² | - |
| 1778027860 | 22.78° C | 65% | 1009.1 hPa | 0 mm | - | 1 W/m² | - |
| 1778027557 | 22.78° C | 62% | 1009.1 hPa | 0 mm | - | 2 W/m² | - |
| 1778027253 | 22.78° C | 63% | 1009.1 hPa | 0 mm | - | 2 W/m² | - |
| 1778026949 | 22.78° C | 64% | 1008.9 hPa | 0 mm | - | 3 W/m² | - |
* Rain latest hour (hover to see other rain measurements)
** Current wind speed in m/s (hover to see current wind gust speed)